sat.trackr.live / text

‹ back to catalog

STARLINK-30270

NORAD 57530 · 2023-115K

PAYLOAD ACTIVE UNKNOWN

§ Identity

Operator
Country
US
Launch date
2023-08-08
Launch site
AFWTR
Launch vehicle
Mass (kg)
RCS (m²)

Purposes: comms

External: N2YO · Heavens-Above · Gunter

§ Orbital elements

Epoch: 2026-05-25T02:51:35.279712Z

Period
94.27 min
Inclination
43.0033°
Eccentricity
0.0002122
Mean motion
15.27587218 rev/d
Perigee alt
481.6 km
Apogee alt
484.5 km
Semi-major
6,861.2 km
B*
-5.7930e-5
RAAN
289.6885°
Arg perigee
265.9394°
Mean anomaly
94.1215°
Rev number
15,404

§ Raw data

STARLINK-302701 57530U 23115K   26145.11915833 -.00001857  00000+0 -57930-4 0  99912 57530  43.0033 289.6885 0002122 265.9394  94.1215 15.27587218154048

JSON: /api/v1/satellites/57530 · /tle

For live sub-satellite position, see the globe view (requires WebGL).

§ Visibility from observer

Set your observer location to see the next 7 days of passes ≥ 10°. The values pass through the URL so the page stays shareable.

No JS? Fill the form by hand. The geolocation button needs JavaScript.